Welcome to the New NWS' Forecast!
Most changes are behind the scenes, but click here for differences you might notice.
Latest weather observations around

Seattle, Seattle Boeing Field (KBFI)

Using English Units (Switch to International System of Units)
Date/ Time (PST) Wind (mph) Vis. (mi) Weather Sky Cond. Temp (°F) Rel. Humidity Wind Chill (°F) Heat Index (°F) Pressure Precip. (in)
Air Dwpt 6 hour Altimeter (inHg) Sea level (inHg) 1 hr 3 hr 6 hr
Max Min
Jan 23 04:53 Calm 10 Cloudy BKN100 OVC120 40 36     86%     30.09 30.09      
Jan 23 03:53 SE 3 10 Partly Cloudy SCT120 41 35     79% 39   30.15 30.14      
Jan 23 02:53 SSE 5 10 Partly Cloudy FEW046 SCT060 39 36     89% 36   30.2 30.19      
Jan 23 01:53 SSE 6 10 Mostly Cloudy BKN120 40 37     89% 36   30.22 30.22      
Jan 23 00:53 SSE 5 10 Cloudy FEW044 OVC055 40 37     89% 37   30.24 30.24      
Jan 22 23:53 SE 3 10 Mostly Cloudy FEW050 SCT055 BKN120 41 37     86% 39   30.27 30.26      
Jan 22 22:53 SSE 3 10 Mostly Cloudy FEW037 BKN049 40 37     89% 38   30.27 30.26      
Jan 22 21:53 SSE 5 10 Partly Cloudy SCT035 38 36     92% 34   30.27 30.26      
Jan 22 20:53 SSE 7 10 Partly Cloudy SCT031 41 38     89% 36   30.28 30.27      
Jan 22 19:53 ESE 6 10 Partly Cloudy SCT030 42 38     85% 38   30.29 30.29      
Jan 22 18:53 SSE 6 10 Partly Cloudy SCT070 42 37     82% 38   30.28 30.28      
Jan 22 17:53 SSE 8 10 Mostly Cloudy SCT030 BKN150 44 38     79% 40   30.28 30.28      
Jan 22 16:53 S 7 10 Partly Cloudy FEW027 SCT120 45 38     76% 41   30.29 30.29      
Jan 22 15:53 S 11 10 Partly Cloudy FEW040 SCT200 47 39     74% 42   30.29 30.29      
Jan 22 14:53 S 10 10 Mostly Cloudy FEW035 BKN120 47 39     74% 42   30.29 30.29      
Jan 22 13:53 SSW 10 10 Mostly Cloudy FEW030 BKN100 47 39     74% 42   30.28 30.28      
Jan 22 12:53 SSW 16 10 Mostly Cloudy FEW030 BKN100 47 39     74% 40   30.27 30.27      
Jan 22 11:53 SSW 11 10 Mostly Cloudy SCT023 BKN120 48 40     73% 43   30.26 30.26      
Jan 22 10:53 S 10 10 Mostly Cloudy SCT023 BKN120 47 40     76% 42   30.25 30.24      
Jan 22 09:53 S 10 10 Partly Cloudy SCT020 45 40     82% 40   30.22 30.22     0
Jan 22 08:53 S 10 10 Partly Cloudy SCT018 42 39     89% 36   30.2 30.19      
Jan 22 07:53 S 11 10 Partly Cloudy SCT095 42 39     89% 36   30.17 30.16      
Jan 22 06:53 S 10 10 Mostly Cloudy BKN090 42 38     85% 36   30.15 30.15 0 0  
Jan 22 05:53 SSW 11 10 Cloudy FEW050 BKN080 OVC090 43 39     86% 37   30.12 30.12 0    
Jan 22 04:53 S 9 8 Light Rain SCT020 OVC040 44 39     82% 39   30.12 30.11 0    
Jan 22 03:53 S 10 10 Mostly Cloudy FEW025 BKN055 44 39     82% 39   30.11 30.1     0
Jan 22 02:53 S 11 10 Cloudy SCT045 SCT055 OVC095 43 41     93% 37   30.09 30.09 0    
Jan 22 01:53 S 8 9 Light Rain FEW030 OVC040 44 40     85% 40   30.09 30.09 0    
Jan 22 00:53 S 11 10 Cloudy FEW031 BKN042 OVC055 44 39     82% 38   30.06 30.06 0 0  
Jan 21 23:53 S 11 10 Mostly Cloudy FEW039 SCT050 BKN085 45 38     76% 39   30.05 30.05 0    
Jan 21 22:53 SSW 9 10 Light Rain SCT035 OVC048 46 38     73% 41   30.05 30.04 0    
Jan 21 21:53 S 11 10 Partly Cloudy SCT070 43 38     82% 37   30.02 30.01     0
Jan 21 20:53 SSE 9 10 Mostly Cloudy BKN031 43 39     86% 38   30 29.99      
Jan 21 19:53 S 11 10 Mostly Cloudy BKN027 45 39     80% 39   29.99 29.99      
Jan 21 18:53 S 10 10 Cloudy BKN024 OVC032 44 40     85% 39   29.97 29.97 0 0  
Jan 21 18:49 SSE 11 10 Light Rain BKN026 OVC032 45 39     81% 39   29.97   0    
Jan 21 17:53 SSE 13 10 Mostly Cloudy FEW021 FEW060 BKN110 43 40     89% 36   29.95 29.95 0    
Jan 21 16:53 S 8 10 Cloudy BKN036 OVC048 42 38     85% 37   29.93 29.93 0    
Jan 21 15:53 WSW 13 6 Haze SCT027 BKN039 BKN085 44 39     82% 38   29.9 29.89 0   0
Jan 21 15:46 WSW 17 6 Light Rain SCT027 BKN039 BKN085 44 39     82% 36   29.89   0    
Jan 21 14:53 SW 15 7 Light Rain SCT027 BKN041 OVC060 46 41     82% 40   29.87 29.87 0    
Jan 21 13:53 S 13 10 Mostly Cloudy SCT045 BKN065 49 39     69% 44   29.85 29.85      
Jan 21 12:53 SSW 17 10 Mostly Cloudy SCT045 BKN070 49 39     69% 43   29.85 29.84   0  
Jan 21 11:53 SSW 21 10 Cloudy and Windy SCT060 BKN075 OVC100 49 41     74% 42   29.82 29.82 0    
Jan 21 10:53 S 13 10 Cloudy OVC048 52 39     61%     29.77 29.77      
Jan 21 09:53 S 20 10 Cloudy and Windy BKN055 OVC085 52 38     59%     29.74 29.74 0   0
Jan 21 08:53 SSE 20 10 Light Rain OVC040 50 40     68% 44   29.74 29.74 0    
Jan 21 07:53 SSE 18 10 Light Rain FEW042 OVC049 49 40     71% 43   29.73 29.73 0    
Jan 21 06:53 S 22 10 Light Rain BKN035 OVC050 51 37     59%     29.77 29.77 0 0  
Jan 21 05:53 S 21 10 Cloudy and Windy BKN070 OVC080 52 35     52%     29.8 29.8      
Jan 21 04:53 SSE 24 10 Cloudy and Windy BKN065 OVC080 51 36     56%     29.83 29.83      
Jan 21 03:53 S 17 10 Cloudy FEW045 BKN055 OVC070 50 36     58% 44   29.86 29.86     0
Jan 21 02:53 S 18 10 Cloudy FEW060 BKN075 OVC100 50 36     58% 44   29.89 29.88 0    
Jan 21 01:53 SSE 18 10 Light Rain FEW045 BKN055 OVC070 50 37     61% 44   29.9 29.9 0    
Jan 21 00:53 S 20 10 Cloudy and Windy FEW055 SCT070 OVC095 50 36     58% 44   29.92 29.92      
Jan 20 23:53 S 21 10 Mostly Cloudy and Windy BKN095 BKN110 50 36     58% 43   29.93 29.93      
Jan 20 22:53 S 20 10 Mostly Clear and Windy FEW065 FEW090 49 36     61% 42   29.94 29.94      
Jan 20 21:53 S 17 10 Mostly Cloudy BKN085 49 36     61% 43   29.95 29.94 0   0
Jan 20 20:53 SSE 14 10 Cloudy OVC065 47 38     71% 41   29.96 29.96      
Jan 20 19:53 SSE 13 10 Mostly Cloudy FEW044 BKN090 46 38     73% 40   29.97 29.97      
Jan 20 18:53 SSE 14 10 Mostly Cloudy BKN040 46 40     79% 40   29.99 29.99   0  
Jan 20 17:53 SSE 14 10 Cloudy SCT043 BKN055 OVC080 46 41     82% 40   30.01 30.01 0    
Jan 20 16:53 SSE 11 10 Cloudy SCT030 BKN080 OVC110 45 41     86% 39   30.02 30.01 0    
Jan 20 15:53 S 11 6 Light Rain FEW029 BKN040 OVC060 47 41     80% 42   30.04 30.04 0   0
Jan 20 14:53 SSE 10 10 Cloudy BKN026 BKN037 OVC047 47 41     80% 42   30.03 30.03      
Jan 20 13:53 S 8 10 Cloudy BKN022 OVC033 46 40     79% 42   30.04 30.04 0    
Jan 20 13:18 SSE 13 10 Cloudy BKN022 OVC033 46 40     79% 40   30.04        
Jan 20 12:53 SSE 13 10 Cloudy OVC033 45 40     82% 39   30.05 30.04 0 0  
Jan 20 11:53 S 11 10 Light Rain BKN026 OVC037 45 40     82% 39   30.07 30.06 0    
Jan 20 10:53 SSE 8 10 Cloudy BKN026 OVC037 45 39     80% 41   30.08 30.07      
Jan 20 09:53 SSE 7 10 Mostly Cloudy SCT016 BKN030 BKN100 44 38     79% 40   30.07 30.07      
Jan 20 08:53 S 14 10 Mostly Cloudy SCT016 BKN022 43 38     82% 36   30.05 30.05      
Jan 20 08:38 SSE 10 10 Mostly Cloudy SCT016 BKN022 42 38     85% 36   30.04        
Jan 20 07:53 SSE 9 10 Cloudy SCT022 BKN055 OVC070 41 38     89% 35   30.03 30.03      
Jan 20 06:53 SSE 10 10 Cloudy BKN028 OVC035 41 38     89% 35   30.03 30.03      
Jan 20 05:53 SSE 11 10 Mostly Cloudy SCT026 BKN070 BKN095 41 38     89% 34   30.03 30.02      
Jun 12 03:53 SSE 8 10 Mostly Cloudy BKN060 53 51     93%     30 30      
Jun 12 02:53 SSE 7 10 Mostly Cloudy BKN055 54 51     90%     30 29.99      
Jun 11 22:53 Calm 10 Clear CLR 61 49     64%     29.99 29.99      
Jun 11 14:53 NW 8 10 Clear   69 48     47%     30 29.99      
Jun 11 01:53 Calm 10 Mostly Cloudy BKN085 57 47     69%     29.97 29.97      
Jun 10 23:53 Calm 10 Cloudy OVC075 59 47     64%     29.95 29.95      
Jun 10 15:53 NNW 7 10 Clear   65 44     47%     29.85 29.85      
Jun 08 08:44 SSE 8 10 Light Rain SCT007 BKN038 OVC095 57 57     100%     29.66   0    
Jun 07 14:53 6 10 Cloudy SCT140 OVC250 79 54     42%   79 29.69 29.69      
Jun 06 00:53 3 10 Clear CLR 60 46     60%     30.04 30.04      
Jun 05 20:53 NW 6 10 Clear CLR 65 46     50%     30.05 30.05      
Jun 05 19:53 NW 6 10 Mostly Cloudy BKN200 67 47     49%     30.05 30.05      
Jun 05 15:53 WNW 9 10 Mostly Cloudy BKN250 71 45     39%   70 30.08 30.07